When you browse on this site, cookies collect data to enhance your experience and personalize the content and advertising you see.
Visit our Privacy Policy to learn more. By continuing to use the site, you agree to this use of cookies and data.
  • In Hungary
  • List of Countries
  • For 7 days
  • Water Temperature
  • Weather Map
  • News
  • Weather Widgets
  • user-avatar
    Login

    Hourly Weather Supovskiy

    Today, 14 October, Monday

    Time Temperature Precipitation Wind Pressure Humidity
    00:00 +13°C° 0 mm 0 mps 767 mmHg 64%
    01:00 +12°C° 0 mm 0 mps 767 mmHg 65%
    02:00 +12°C° 0 mm 0 mps 767 mmHg 66%
    03:00 +12°C° 0 mm 0 mps 767 mmHg 67%
    04:00 +13°C° 0 mm 1 mps 767 mmHg 68%
    05:00 +12°C° 0 mm 1 mps 766 mmHg 68%
    06:00 +12°C° 0 mm 1 mps 766 mmHg 69%
    07:00 +14°C° 0 mm 1 mps 766 mmHg 64%
    08:00 +15°C° 0 mm 1 mps 767 mmHg 59%
    09:00 +18°C° 0 mm 1 mps 767 mmHg 54%
    10:00 +19°C° 0 mm 2 mps 767 mmHg 48%
    11:00 +20°C° 0 mm 2 mps 766 mmHg 43%
    12:00 +23°C° 0 mm 2 mps 766 mmHg 37%
    13:00 +24°C° 0 mm 2 mps 766 mmHg 36%
    14:00 +24°C° 0 mm 2 mps 765 mmHg 35%
    15:00 +25°C° 0 mm 2 mps 765 mmHg 34%
    16:00 +23°C° 0 mm 2 mps 765 mmHg 39%
    17:00 +21°C° 0 mm 2 mps 765 mmHg 44%
    18:00 +19°C° 0 mm 2 mps 764 mmHg 48%
    19:00 +18°C° 0 mm 2 mps 764 mmHg 51%
    20:00 +17°C° 0 mm 2 mps 764 mmHg 53%
    21:00 +16°C° 0 mm 2 mps 765 mmHg 55%
    22:00 +16°C° 0 mm 2 mps 764 mmHg 57%
    23:00 +15°C° 0 mm 1 mps 764 mmHg 59%

    Tomorrow, 15 October, Tuesday

    Time Temperature Precipitation Wind Pressure Humidity
    00:00 +15°C° 0 mm 1 mps 763 mmHg 60%
    01:00 +15°C° 0 mm 1 mps 763 mmHg 61%
    02:00 +14°C° 0 mm 1 mps 763 mmHg 62%
    03:00 +14°C° 0 mm 1 mps 763 mmHg 63%
    04:00 +14°C° 0 mm 1 mps 763 mmHg 63%
    05:00 +12°C° 0 mm 0 mps 763 mmHg 63%
    06:00 +12°C° 0 mm 0 mps 763 mmHg 64%
    07:00 +14°C° 0 mm 0 mps 763 mmHg 59%
    08:00 +15°C° 0 mm 0 mps 763 mmHg 55%
    09:00 +17°C° 0 mm 0 mps 763 mmHg 50%
    10:00 +21°C° 0 mm 1 mps 763 mmHg 45%
    11:00 +23°C° 0 mm 1 mps 763 mmHg 40%
    12:00 +25°C° 0 mm 1 mps 763 mmHg 36%
    13:00 +26°C° 0 mm 1 mps 763 mmHg 35%
    14:00 +26°C° 0 mm 1 mps 762 mmHg 34%
    15:00 +27°C° 0 mm 2 mps 762 mmHg 33%
    16:00 +25°C° 0 mm 1 mps 762 mmHg 38%
    17:00 +23°C° 0 mm 1 mps 762 mmHg 43%
    18:00 +21°C° 0 mm 1 mps 761 mmHg 48%
    19:00 +20°C° 0 mm 1 mps 762 mmHg 50%
    20:00 +19°C° 0 mm 1 mps 762 mmHg 51%
    21:00 +19°C° 0 mm 1 mps 762 mmHg 53%
    22:00 +18°C° 0 mm 1 mps 762 mmHg 54%
    23:00 +18°C° 0 mm 1 mps 762 mmHg 55%

    Day after tomorrow, 16 October, Wednesday

    Time Temperature Precipitation Wind Pressure Humidity
    00:00 +16°C° 0 mm 1 mps 761 mmHg 57%
    01:00 +16°C° 0 mm 1 mps 762 mmHg 58%
    02:00 +15°C° 0 mm 1 mps 762 mmHg 59%
    03:00 +15°C° 0 mm 1 mps 762 mmHg 60%
    04:00 +14°C° 0 mm 1 mps 762 mmHg 62%
    05:00 +14°C° 0 mm 1 mps 762 mmHg 63%
    06:00 +14°C° 0 mm 1 mps 762 mmHg 64%
    07:00 +15°C° 0 mm 1 mps 762 mmHg 60%
    08:00 +18°C° 0 mm 1 mps 762 mmHg 57%
    09:00 +19°C° 0 mm 1 mps 762 mmHg 53%
    10:00 +20°C° 0 mm 2 mps 762 mmHg 48%
    11:00 +23°C° 0 mm 2 mps 762 mmHg 44%
    12:00 +24°C° 0 mm 2 mps 761 mmHg 39%
    13:00 +25°C° 0 mm 2 mps 761 mmHg 38%
    14:00 +26°C° 0 mm 3 mps 761 mmHg 37%
    15:00 +26°C° 0 mm 3 mps 761 mmHg 35%
    16:00 +25°C° 0 mm 2 mps 761 mmHg 41%
    17:00 +23°C° 0 mm 2 mps 761 mmHg 46%
    18:00 +20°C° 0 mm 2 mps 761 mmHg 51%
    19:00 +19°C° 0 mm 2 mps 761 mmHg 53%
    20:00 +18°C° 0 mm 2 mps 761 mmHg 56%
    21:00 +18°C° 0 mm 3 mps 761 mmHg 59%
    22:00 +17°C° 0 mm 2 mps 761 mmHg 60%
    23:00 +16°C° 0 mm 2 mps 761 mmHg 61%

    17 October, Thursday

    Time Temperature Precipitation Wind Pressure Humidity
    00:00 +16°C° 0 mm 2 mps 761 mmHg 62%
    01:00 +15°C° 0 mm 2 mps 761 mmHg 64%
    02:00 +15°C° 0 mm 2 mps 761 mmHg 66%
    03:00 +14°C° 0 mm 2 mps 761 mmHg 68%
    04:00 +14°C° 0 mm 1 mps 761 mmHg 70%
    05:00 +14°C° 0 mm 1 mps 761 mmHg 73%
    06:00 +13°C° 0 mm 1 mps 761 mmHg 76%
    07:00 +15°C° 0 mm 1 mps 761 mmHg 72%
    08:00 +16°C° 0 mm 1 mps 761 mmHg 68%
    09:00 +18°C° 0 mm 1 mps 761 mmHg 65%
    10:00 +20°C° 0 mm 1 mps 761 mmHg 59%
    11:00 +22°C° 0 mm 1 mps 761 mmHg 52%
    12:00 +24°C° 0 mm 1 mps 761 mmHg 46%
    13:00 +25°C° 0 mm 1 mps 760 mmHg 44%
    14:00 +25°C° 0 mm 1 mps 760 mmHg 42%
    15:00 +26°C° 0 mm 1 mps 760 mmHg 40%
    16:00 +24°C° 0 mm 1 mps 760 mmHg 46%
    17:00 +20°C° 0 mm 0 mps 759 mmHg 52%
    18:00 +18°C° 0 mm 0 mps 759 mmHg 58%
    19:00 +18°C° 0 mm 0 mps 759 mmHg 60%
    20:00 +17°C° 0 mm 0 mps 759 mmHg 62%
    21:00 +19°C° 0 mm 1 mps 759 mmHg 63%
    22:00 +18°C° 0 mm 1 mps 759 mmHg 65%
    23:00 +18°C° 0 mm 1 mps 759 mmHg 66%

    18 October, Friday

    Time Temperature Precipitation Wind Pressure Humidity
    00:00 +16°C° 0 mm 1 mps 759 mmHg 67%
    01:00 +16°C° 0 mm 1 mps 759 mmHg 68%
    02:00 +15°C° 0 mm 0 mps 759 mmHg 70%
    03:00 +14°C° 0 mm 0 mps 759 mmHg 71%
    04:00 +14°C° 0 mm 0 mps 759 mmHg 73%
    05:00 +13°C° 0 mm 0 mps 759 mmHg 74%
    06:00 +13°C° 0 mm 0 mps 759 mmHg 76%
    07:00 +15°C° 0 mm 0 mps 759 mmHg 71%
    08:00 +16°C° 0 mm 0 mps 759 mmHg 65%
    09:00 +20°C° 0 mm 1 mps 760 mmHg 60%
    10:00 +21°C° 0 mm 1 mps 760 mmHg 55%
    11:00 +23°C° 0 mm 1 mps 760 mmHg 49%
    12:00 +25°C° 0 mm 2 mps 760 mmHg 44%
    13:00 +25°C° 0 mm 2 mps 760 mmHg 43%
    14:00 +25°C° 0 mm 2 mps 759 mmHg 41%
    15:00 +26°C° 0 mm 2 mps 759 mmHg 40%
    16:00 +24°C° 0 mm 2 mps 759 mmHg 45%
    17:00 +21°C° 0 mm 2 mps 759 mmHg 49%
    18:00 +21°C° 0 mm 1 mps 759 mmHg 54%
    19:00 +20°C° 0 mm 1 mps 760 mmHg 57%
    20:00 +19°C° 0 mm 1 mps 760 mmHg 59%
    21:00 +19°C° 0 mm 1 mps 760 mmHg 62%
    22:00 +18°C° 0 mm 1 mps 760 mmHg 65%
    23:00 +18°C° 0 mm 1 mps 760 mmHg 67%

    19 October, Saturday

    Time Temperature Precipitation Wind Pressure Humidity
    00:00 +16°C° 0 mm 1 mps 760 mmHg 70%
    01:00 +16°C° 0 mm 1 mps 760 mmHg 71%
    02:00 +15°C° 0 mm 1 mps 760 mmHg 72%
    03:00 +15°C° 0 mm 1 mps 761 mmHg 74%
    04:00 +15°C° 0 mm 1 mps 761 mmHg 74%
    05:00 +15°C° 0 mm 1 mps 761 mmHg 74%
    06:00 +15°C° 0 mm 1 mps 761 mmHg 74%
    07:00 +15°C° 0 mm 1 mps 761 mmHg 70%
    08:00 +16°C° 0 mm 1 mps 762 mmHg 67%
    09:00 +18°C° 0 mm 1 mps 762 mmHg 64%
    10:00 +19°C° 0 mm 2 mps 762 mmHg 59%
    11:00 +20°C° 0 mm 2 mps 762 mmHg 54%
    12:00 +23°C° 0 mm 2 mps 762 mmHg 49%
    13:00 +23°C° 0 mm 2 mps 762 mmHg 47%
    14:00 +24°C° 0 mm 2 mps 762 mmHg 46%
    15:00 +24°C° 0 mm 2 mps 761 mmHg 44%
    16:00 +23°C° 0 mm 2 mps 761 mmHg 49%
    17:00 +21°C° 0 mm 2 mps 761 mmHg 53%
    18:00 +19°C° 0 mm 2 mps 761 mmHg 58%
    19:00 +18°C° 0 mm 2 mps 762 mmHg 59%
    20:00 +18°C° 0 mm 3 mps 762 mmHg 59%
    21:00 +17°C° 0 mm 3 mps 762 mmHg 60%
    22:00 +17°C° 0 mm 3 mps 762 mmHg 62%
    23:00 +16°C° 0 mm 2 mps 762 mmHg 63%
    Show more